Location: Archemont
(49.1579°N, 1.7598°E)
Time: 21:46:40
(UTC+00:00)

Okean-O - Pass Details

Date: 03 February 2023
Orbit: 637 x 638 km, 98.1° (Epoch: 21 March)

Event Time Altitude Azimuth Distance (km) Brightness Sun altitude
Exits shadow 19:26:40 24° 2° (N) 1,329 4.2 -25.3°
Drops below altitude 10° 19:28:31 10° 354° (N) 2,043 5.3 -25.6°
Sets 19:30:46 0° 350° (N) 2,957 6.2 -26.0°
